Flag for Norway Weather past 2 weeks in Kolbotn, Norway

Now
55 °F

Passing clouds.


Feels Like: 51 °F
Forecast: 46 / 69 °F
Wind: 17 mph from Southeast

Location: Oslo / Fornebu

Current Time: Aug 3, 2015 at 6:58:07 AM

Latest Report: Aug 3, 2015 at 5:50 AM


Visibility: N/A

Pressure: 30.04 "Hg

Humidity: 77%

Dew point: 48 °F

Location of KolbotnLocation

Historic Weather in Kolbotn — Graph

°F

Kolbotn temperature yesterday

Maximum temperature yesterday: 61 °F (at 2:50 PM)
Minimum temperature yesterday: 52 °F (at 12:50 AM)
Average temperature yesterday: 55 °F

Past Weeks' High & Low Weather Summary

 TemperatureHumidityPressure
High61 °F (Aug 2, 2:50 PM)100% (Jul 19, 7:20 AM)30.09 "Hg (Jul 19, 7:20 AM)
Low46 °F (Jul 31, 5:20 AM)59% (Jul 20, 11:20 AM)29.50 "Hg (Jul 21, 10:20 AM)
Average53 °F83%29.73 "Hg
* Reported Jul 19 5:20 AM — Aug 3 5:50 AM, Kolbotn, Weather by CustomWeather, © 2015

Note: Actual official high and low records may vary slightly from our data, if they occured in-between our weather recording intervals... More about our weather records

Advertising

Kolbotn weather history for previous 24 hours

 ConditionsComfort  
Time TempWeatherWind HumidityBarometerVisibility
5:50 AM
Mon, Aug 3
55 °FPassing clouds.17 mph77%30.04 "HgN/A
4:50 AM55 °FPassing clouds.14 mph77%30.07 "HgN/A
4:20 AM55 °FPassing clouds.13 mph77%30.07 "HgN/A
3:50 AM55 °FPassing clouds.12 mph77%30.07 "HgN/A
3:20 AM55 °FPassing clouds.12 mph77%30.07 "HgN/A
2:50 AM55 °FPassing clouds.12 mph77%30.07 "HgN/A
2:20 AM55 °FPassing clouds.12 mph77%30.09 "HgN/A
1:50 AM55 °FPassing clouds.13 mph77%30.09 "HgN/A
1:20 AM55 °FPassing clouds.10 mph77%30.09 "HgN/A
12:50 AM54 °FCool.9 mph82%30.09 "HgN/A
12:20 AM54 °FCool.9 mph82%30.09 "HgN/A
11:50 PM
Sun, Aug 2
54 °FPassing clouds.8 mph82%30.09 "HgN/A
11:20 PM54 °FPassing clouds.6 mph82%30.09 "HgN/A
10:50 PM54 °FPassing clouds.1 mph82%30.09 "HgN/A
10:20 PM54 °FCool.3 mph82%30.09 "HgN/A
9:50 PM54 °FCool.6 mph82%30.07 "HgN/A
9:20 PM54 °FCool.8 mph82%30.07 "HgN/A
8:50 PM55 °FPassing clouds.6 mph82%30.07 "HgN/A
8:20 PM55 °FPassing clouds.8 mph82%30.07 "HgN/A
7:50 PM59 °FPassing clouds.3 mph72%30.07 "HgN/A
7:20 PM61 °FPassing clouds.2 mph68%30.04 "HgN/A
6:50 PM59 °FCool.3 mph72%30.04 "HgN/A
6:20 PM59 °FCool.6 mph68%30.04 "HgN/A
5:50 PM57 °FCool.3 mph72%30.04 "HgN/A
5:20 PM55 °FCool.5 mph77%30.04 "HgN/A
4:50 PM55 °FCool.5 mph77%30.04 "HgN/A
4:20 PM57 °FCool.7 mph72%30.04 "HgN/A
3:50 PM59 °FCool.3 mph68%30.04 "HgN/A
3:20 PM59 °FCool.1 mph63%30.01 "HgN/A
2:50 PM61 °FCool.5 mph63%30.01 "HgN/A
2:20 PM57 °FCool.5 mph72%30.01 "HgN/A
1:50 PM57 °FCool.6 mph67%30.01 "HgN/A
1:20 PM57 °FCool.6 mph67%29.98 "HgN/A
12:50 PM57 °FCool.3 mph67%29.98 "HgN/A
12:20 PM59 °FCool.2 mph63%29.95 "HgN/A
11:50 AM59 °FCool.2 mph68%29.95 "HgN/A
11:20 AM57 °FCool.3 mph72%29.95 "HgN/A
10:50 AM55 °FCool.1 mph72%29.92 "HgN/A
10:20 AM54 °FPassing clouds.No wind77%29.92 "HgN/A
9:50 AM54 °FPartly sunny.5 mph77%29.92 "HgN/A
9:20 AM54 °FBroken clouds.6 mph77%29.89 "HgN/A
8:50 AM52 °FScattered clouds.6 mph82%29.89 "HgN/A
8:20 AM52 °FPassing clouds.8 mph82%29.86 "HgN/A
7:50 AM52 °FPassing clouds.10 mph82%29.86 "HgN/A
7:20 AM52 °FBroken clouds.13 mph82%29.86 "HgN/A
6:50 AM55 °FPassing clouds.5 mph82%29.86 "HgN/A
6:20 AM54 °FCool.2 mph82%29.86 "HgN/A
Weather by CustomWeather, © 2015

See weather overviewHow to use our weather pages